Location: Unspecified
(51.5147°N, 7.4673°E)
Time: 19:02:50
(UTC+01:00)

Explorer 7 - Pass Details

Date: 23 February 2026
Orbit: 430 x 541 km, 50.2° (Epoch: 12 March)

Event Time Altitude Azimuth Distance (km) Brightness Sun altitude
Rises 15:20:35 0° 253° (WSW) 2,419 11.1 20.1°
Reaches altitude 10° 15:22:40 10° 251° (WSW) 1,563 10.4 19.9°
Maximum altitude 15:26:10 64° 169° (S) 506 7.2 19.5°
Drops below altitude 10° 15:29:46 10° 88° (E) 1,621 8.9 19.1°
Sets 15:31:59 0° 85° (E) 2,520 9.8 18.9°
